Rugby, ND

10:10 AM CST on November 20, 2017 (GMT -0600)
Rugby Municipal

Weather History for KRUG - December, 2013

Change the Weather History Date:

Wednesday, December 11, 2013

  Actual Average Record
Temperature  
Mean Temperature -11 °F -  
Max Temperature 0 °F 22 °F 40 °F (1974)
Min Temperature -22 °F 3 °F -22 °F (2013)
Degree Days  
Heating Degree Days 76    
Moisture  
Dew Point -17 °F    
Average Humidity 77    
Maximum Humidity 85    
Minimum Humidity 66    
Precipitation  
Precipitation 0.00 in - - ()
Sea Level Pressure  
Sea Level Pressure 30.24 in    
Wind  
Wind Speed 7 mph (SW)    
Max Wind Speed 12 mph    
Max Gust Speed -    
Visibility 9 miles    
Events Snow    
Averages and records for this station are not official NWS values.
T = Trace of Precipitation, MM = Missing Value Source: NWS Daily Summary

Daily Weather History Graph

Daily Weather History Graph

Search for Another Location

Airport or City:

Trip Planner

Search our weather history database for the weather conditions in past years. The results will help you decide how hot, cold, wet, or windy it might be!

Date:

Astronomy

Dec. 11, 2013 Rise Set
Actual Time 8:21 AM CST 4:45 PM CST
Civil Twilight 7:45 AM CST 5:21 PM CST
Nautical Twilight 7:05 AM CST 6:01 PM CST
Astronomical Twilight 6:27 AM CST 6:39 PM CST
Moon 1:39 PM CST (12/11) 2:22 AM CST (12/11)
Length of Visible Light 9h 36m
Length of Day
8h 23m
Waxing Gibbous, 72% of the Moon is Illuminated
Dec 11
Waxing Gibbous
Dec 17
Full
Dec 25
Last Quarter
Jan 1
New
Jan 7
First Quarter

Hourly Weather History & Observations

Time (CST) Temp. Windchill Dew Point Humidity Pressure Visibility Wind Dir Wind Speed Gust Speed Precip Events Conditions
12:15 AM -16.6 °F -32.9 °F -22.0 °F 76% 30.33 in 10.0 mi West 6.9 mph - N/A   Clear
12:35 AM -16.6 °F -31.3 °F -22.0 °F 76% 30.34 in 10.0 mi WNW 5.8 mph - N/A   Clear
12:55 AM -18.4 °F -31.4 °F -22.0 °F 84% 30.33 in 10.0 mi WSW 4.6 mph - N/A   Clear
1:15 AM -18.4 °F -36.6 °F -23.8 °F 76% 30.34 in 10.0 mi West 8.1 mph - N/A   Clear
1:35 AM -18.4 °F -35.1 °F -25.6 °F 70% 30.34 in 10.0 mi West 6.9 mph - N/A   Clear
1:55 AM -18.4 °F -33.4 °F -23.8 °F 76% 30.35 in 10.0 mi West 5.8 mph - N/A   Clear
2:15 AM -18.4 °F -33.4 °F -23.8 °F 76% 30.36 in 10.0 mi WSW 5.8 mph - N/A   Clear
2:35 AM -18.4 °F -40.2 °F -23.8 °F 76% 30.37 in 10.0 mi WSW 11.5 mph - N/A   Clear
2:55 AM -20.2 °F -42.4 °F -25.6 °F 76% 30.37 in 10.0 mi West 11.5 mph - N/A   Clear
3:15 AM -20.2 °F -41.3 °F -25.6 °F 76% 30.37 in 10.0 mi WSW 10.4 mph - N/A   Clear
3:35 AM -20.2 °F -37.3 °F -25.6 °F 76% 30.37 in 10.0 mi West 6.9 mph - N/A   Clear
3:55 AM -22.0 °F -39.4 °F -27.4 °F 76% 30.36 in 10.0 mi WSW 6.9 mph - N/A   Clear
4:15 AM -20.2 °F -37.3 °F -25.6 °F 76% 30.37 in 10.0 mi WNW 6.9 mph - N/A   Clear
4:35 AM -22.0 °F -41.0 °F -27.4 °F 76% 30.36 in 10.0 mi West 8.1 mph - N/A   Clear
4:55 AM -20.2 °F -38.8 °F -25.6 °F 76% 30.36 in 10.0 mi WNW 8.1 mph - N/A   Clear
5:15 AM -20.2 °F -42.4 °F -25.6 °F 76% 30.36 in 10.0 mi West 11.5 mph - N/A   Clear
5:35 AM -20.2 °F -41.3 °F -25.6 °F 76% 30.37 in 10.0 mi West 10.4 mph - N/A   Clear
5:55 AM -20.2 °F -38.8 °F -25.6 °F 76% 30.36 in 10.0 mi WNW 8.1 mph - N/A   Unknown
6:15 AM -20.2 °F -40.1 °F -25.6 °F 76% 30.36 in 10.0 mi West 9.2 mph - N/A   Clear
6:35 AM -20.2 °F -37.3 °F -25.6 °F 76% 30.36 in 10.0 mi WNW 6.9 mph - N/A   Clear
6:55 AM -22.0 °F -42.3 °F -27.4 °F 76% 30.36 in 10.0 mi WSW 9.2 mph - N/A   Clear
7:15 AM -20.2 °F -38.8 °F -27.4 °F 69% 30.36 in 10.0 mi WSW 8.1 mph - N/A   Clear
7:35 AM -20.2 °F -40.1 °F -25.6 °F 76% 30.35 in 10.0 mi SW 9.2 mph - N/A   Clear
7:55 AM -20.2 °F -40.1 °F -25.6 °F 76% 30.35 in 10.0 mi WSW 9.2 mph - N/A   Clear
8:15 AM -20.2 °F -40.1 °F -25.6 °F 76% 30.34 in 10.0 mi WSW 9.2 mph - N/A   Clear
8:35 AM -20.2 °F -38.8 °F -25.6 °F 76% 30.33 in 10.0 mi WSW 8.1 mph - N/A   Clear
8:55 AM -20.2 °F -37.3 °F -25.6 °F 76% 30.33 in 10.0 mi SW 6.9 mph - N/A   Clear
9:15 AM -18.4 °F -37.9 °F -23.8 °F 76% 30.33 in 10.0 mi SW 9.2 mph - N/A   Clear
9:35 AM -18.4 °F -37.9 °F -22.0 °F 84% 30.32 in 10.0 mi SW 9.2 mph - N/A   Clear
9:55 AM -16.6 °F -34.4 °F -20.2 °F 84% 30.31 in 10.0 mi SW 8.1 mph - N/A   Clear
10:15 AM -13.0 °F -31.3 °F -18.4 °F 77% 30.32 in 10.0 mi SW 9.2 mph - N/A   Clear
10:35 AM -13.0 °F -32.4 °F -18.4 °F 77% 30.32 in 10.0 mi SW 10.4 mph - N/A   Clear
10:55 AM - - - N/A% 30.31 in 10.0 mi SW 8.1 mph - N/A   Clear
11:15 AM -11.2 °F -26.4 °F -16.6 °F 77% 30.30 in 10.0 mi SW 6.9 mph - N/A   Clear
11:35 AM -11.2 °F -30.1 °F -16.6 °F 77% 30.29 in 10.0 mi SW 10.4 mph - N/A   Clear
11:55 AM -9.4 °F -27.9 °F -14.8 °F 77% 30.27 in 10.0 mi SSW 10.4 mph - N/A   Clear
12:15 PM -9.4 °F -24.3 °F -14.8 °F 77% 30.25 in 10.0 mi SSW 6.9 mph - N/A   Clear
12:35 PM -7.6 °F -23.4 °F -13.0 °F 77% 30.24 in 10.0 mi SSW 8.1 mph - N/A   Clear
12:55 PM -5.8 °F -23.4 °F -13.0 °F 71% 30.23 in 10.0 mi SW 10.4 mph - N/A   Clear
1:15 PM -4.0 °F -17.8 °F -11.2 °F 71% 30.21 in 10.0 mi SW 6.9 mph - N/A   Clear
1:35 PM -2.2 °F -16.8 °F -11.2 °F 66% 30.21 in 10.0 mi SW 8.1 mph - N/A   Clear
1:55 PM -2.2 °F -14.2 °F -11.2 °F 66% 30.19 in 10.0 mi SSW 5.8 mph - N/A   Clear
2:15 PM -2.2 °F -16.8 °F -9.4 °F 71% 30.17 in 10.0 mi South 8.1 mph - N/A   Clear
2:35 PM -2.2 °F -15.6 °F -9.4 °F 71% 30.16 in 10.0 mi SSW 6.9 mph - N/A   Clear
2:55 PM -2.2 °F -15.6 °F -9.4 °F 71% 30.15 in 10.0 mi South 6.9 mph - N/A   Scattered Clouds
3:15 PM -2.2 °F -14.2 °F -7.6 °F 78% 30.14 in 5.0 mi South 5.8 mph - N/A   Haze
3:35 PM -2.2 °F -16.8 °F -7.6 °F 78% 30.14 in 3.0 mi South 8.1 mph - N/A Snow Light Snow
3:55 PM -2.2 °F -15.6 °F -7.6 °F 78% 30.13 in 3.0 mi SSE 6.9 mph - N/A   Haze
4:15 PM -0.4 °F -13.4 °F -7.6 °F 72% 30.12 in 2.5 mi SSE 6.9 mph - N/A Snow Light Snow
4:35 PM -0.4 °F -12.0 °F -7.6 °F 72% 30.12 in 3.0 mi South 5.8 mph - N/A   Haze
4:55 PM -0.4 °F -10.4 °F -5.8 °F 78% 30.12 in 2.0 mi SSE 4.6 mph - N/A Snow Light Snow
5:15 PM -0.4 °F -10.4 °F -5.8 °F 78% 30.11 in 3.0 mi South 4.6 mph - N/A Snow Light Snow
5:35 PM -0.4 °F -12.0 °F -5.8 °F 78% 30.10 in 7.0 mi South 5.8 mph - N/A   Clear
5:55 PM -0.4 °F -12.0 °F -5.8 °F 78% 30.10 in 10.0 mi South 5.8 mph - N/A   Partly Cloudy
6:15 PM -0.4 °F -8.3 °F -5.8 °F 78% 30.10 in 10.0 mi SSE 3.5 mph - N/A   Partly Cloudy
6:35 PM -2.2 °F -10.4 °F -7.6 °F 78% 30.10 in 10.0 mi SSE 3.5 mph - N/A   Clear
6:55 PM -2.2 °F - -7.6 °F 78% 30.11 in 10.0 mi Calm Calm - N/A   Clear
7:15 PM -4.0 °F - -9.4 °F 78% 30.10 in 10.0 mi Calm Calm - N/A   Clear
7:35 PM -7.6 °F - -11.2 °F 84% 30.10 in 10.0 mi Calm Calm - N/A   Clear
7:55 PM -7.6 °F - -11.2 °F 84% 30.09 in 10.0 mi Calm Calm - N/A   Clear
8:15 PM -4.0 °F - -7.6 °F 85% 30.09 in 10.0 mi Calm Calm - N/A   Clear
8:35 PM -4.0 °F -14.6 °F -9.4 °F 78% 30.10 in 10.0 mi WSW 4.6 mph - N/A   Clear
8:55 PM -4.0 °F -14.6 °F -9.4 °F 78% 30.10 in 10.0 mi West 4.6 mph - N/A   Clear
9:15 PM -5.8 °F -16.7 °F -9.4 °F 84% 30.10 in 10.0 mi West 4.6 mph - N/A   Clear
9:35 PM -7.6 °F -18.8 °F -11.2 °F 84% 30.11 in 10.0 mi WNW 4.6 mph - N/A   Clear
9:55 PM -9.4 °F -20.9 °F -13.0 °F 84% 30.12 in 10.0 mi NW 4.6 mph - N/A   Clear
10:15 PM -7.6 °F - -11.2 °F 84% 30.12 in 10.0 mi Calm Calm - N/A   Clear
10:35 PM -9.4 °F - -13.0 °F 84% 30.11 in 10.0 mi Calm Calm - N/A   Clear
10:55 PM -7.6 °F - -11.2 °F 84% 30.11 in 10.0 mi Calm Calm - N/A   Clear
11:15 PM -7.6 °F - -11.2 °F 84% 30.12 in 10.0 mi Calm Calm - N/A   Clear
11:35 PM -7.6 °F - -11.2 °F 84% 30.12 in 10.0 mi Calm Calm - N/A   Clear
11:55 PM -7.6 °F - -11.2 °F 84% 30.12 in 10.0 mi Calm Calm - N/A   Clear